TimePDT,TemperatureF,Dew PointF,Humidity,Sea Level PressureIn,VisibilityMPH,Wind Direction,Wind SpeedMPH,Gust SpeedMPH,PrecipitationIn,Events,Conditions,WindDirDegrees,DateUTC
12:53 AM,52.0,48.0,86,30.00,10.0,WNW,5.8,-,N/A,,Clear,300,2013-06-16 07:53:00
1:53 AM,54.0,48.9,83,30.01,10.0,WNW,9.2,-,N/A,,Clear,300,2013-06-16 08:53:00
2:53 AM,53.1,48.0,83,30.02,10.0,WNW,8.1,-,N/A,,Clear,300,2013-06-16 09:53:00
3:53 AM,54.0,48.0,80,30.02,10.0,WNW,5.8,-,N/A,,Mostly Cloudy,290,2013-06-16 10:53:00
4:53 AM,51.1,48.0,89,30.03,10.0,WNW,5.8,-,N/A,,Clear,300,2013-06-16 11:53:00
5:53 AM,52.0,48.9,89,30.04,10.0,WNW,9.2,-,N/A,,Clear,300,2013-06-16 12:53:00
6:53 AM,55.0,51.1,86,30.05,10.0,WNW,10.4,-,N/A,,Clear,290,2013-06-16 13:53:00
7:53 AM,55.9,51.1,84,30.07,10.0,WNW,6.9,-,N/A,,Clear,290,2013-06-16 14:53:00
8:53 AM,57.9,52.0,81,30.08,10.0,Variable,4.6,-,N/A,,Clear,0,2013-06-16 15:53:00
9:53 AM,59.0,52.0,78,30.07,10.0,NW,9.2,-,N/A,,Clear,310,2013-06-16 16:53:00
10:53 AM,59.0,52.0,78,30.08,10.0,NW,10.4,19.6,N/A,,Clear,310,2013-06-16 17:53:00
11:53 AM,61.0,52.0,72,30.08,10.0,WNW,12.7,-,N/A,,Clear,300,2013-06-16 18:53:00
12:53 PM,62.1,52.0,70,30.07,10.0,WNW,16.1,23.0,N/A,,Clear,300,2013-06-16 19:53:00
1:53 PM,62.1,52.0,70,30.07,10.0,NW,11.5,19.6,N/A,,Clear,320,2013-06-16 20:53:00
2:53 PM,62.1,51.1,67,30.06,10.0,NW,11.5,19.6,N/A,,Clear,310,2013-06-16 21:53:00
3:53 PM,63.0,51.1,65,30.06,10.0,WNW,11.5,17.3,N/A,,Clear,290,2013-06-16 22:53:00
4:53 PM,63.0,51.1,65,30.06,10.0,WNW,13.8,-,N/A,,Clear,300,2013-06-16 23:53:00
5:53 PM,61.0,51.1,70,30.07,10.0,West,13.8,-,0.00,Rain,Light Rain,280,2013-06-17 00:53:00
6:53 PM,59.0,50.0,72,30.07,10.0,West,15.0,-,0.00,,Clear,280,2013-06-17 01:53:00
7:53 PM,57.0,48.9,74,30.08,10.0,WNW,8.1,-,N/A,,Clear,290,2013-06-17 02:53:00
8:53 PM,55.9,48.9,77,30.09,10.0,West,10.4,-,N/A,,Clear,270,2013-06-17 03:53:00
9:53 PM,55.0,48.0,77,30.10,10.0,West,10.4,-,N/A,,Scattered Clouds,270,2013-06-17 04:53:00
10:04 PM,55.0,48.0,77,30.10,10.0,West,9.2,-,N/A,,Mostly Cloudy,260,2013-06-17 05:04:00
10:53 PM,55.0,48.9,80,30.10,10.0,West,11.5,-,N/A,,Mostly Cloudy,280,2013-06-17 05:53:00
11:53 PM,55.0,50.0,83,30.09,10.0,WNW,8.1,-,N/A,,Overcast,300,2013-06-17 06:53:00